DAL6604 PHNL-RJOO

Flight info

Callsign DAL6604
Flight time N/A
Altitude 38000
Route KEOLA3 LILIA DCT DOGIF DCT 26N168W 300008N1800000E 32N172E/N0479F400 34N162E 35N152E SEALS OTR13 LAPIL IPROS Y816 LIGNI XAC SZE GAKKI KOHWA OHDAI
Aircraft A359/H-SDE2E3GHIJ3J4J5LM1ORWXY/LB1D1

Departure

Time N/A
Airport Daniel K. Inouye International Airport (PHNL)

Arrival

Time 2026-05-04 19:58
Airport Osaka Itami International Airport (RJOO)
Time Latitude Longitude Altitude Speed Heading
2026-05-04 19:19 34.73083 139.16199 38013 ft 367 kts 266°
2026-05-04 19:19 34.73523 139.10053 38009 ft 367 kts 266°
2026-05-04 19:20 34.73962 139.03869 38006 ft 367 kts 266°
2026-05-04 19:20 34.74399 138.97681 38006 ft 367 kts 266°
2026-05-04 19:21 34.74833 138.91476 38033 ft 368 kts 267°
2026-05-04 19:21 34.75271 138.85270 38003 ft 368 kts 267°
2026-05-04 19:22 34.75700 138.79110 38003 ft 368 kts 267°
2026-05-04 19:22 34.76127 138.72917 37995 ft 367 kts 267°
2026-05-04 19:23 34.76550 138.66739 37995 ft 367 kts 267°
2026-05-04 19:23 34.76969 138.60559 37992 ft 367 kts 267°
2026-05-04 19:24 34.77386 138.54375 37996 ft 366 kts 267°
2026-05-04 19:24 34.77799 138.48193 37994 ft 366 kts 267°
2026-05-04 19:25 34.78209 138.42019 37992 ft 366 kts 267°
2026-05-04 19:25 34.78613 138.35886 37994 ft 366 kts 267°
2026-05-04 19:26 34.79017 138.29704 37996 ft 366 kts 267°
2026-05-04 19:26 34.79417 138.23536 38020 ft 366 kts 267°
2026-05-04 19:27 34.79458 138.17409 38023 ft 359 kts 260°
2026-05-04 19:27 34.78969 138.11371 38020 ft 358 kts 259°
2026-05-04 19:28 34.78397 138.05385 38020 ft 358 kts 258°
2026-05-04 19:28 34.77811 137.99370 38010 ft 358 kts 258°
2026-05-04 19:29 34.77232 137.93352 38018 ft 358 kts 259°
2026-05-04 19:29 34.76655 137.87340 38018 ft 358 kts 259°
2026-05-04 19:30 34.76076 137.81330 38021 ft 358 kts 259°
2026-05-04 19:30 34.75491 137.75294 37782 ft 365 kts 259°
2026-05-04 19:30 34.75185 137.72188 37531 ft 374 kts 259°
2026-05-04 19:31 34.74877 137.69047 37291 ft 375 kts 259°
2026-05-04 19:31 34.74589 137.65934 37034 ft 376 kts 260°
2026-05-04 19:31 34.74376 137.62761 36775 ft 377 kts 261°
2026-05-04 19:31 34.74211 137.59582 36531 ft 377 kts 261°
2026-05-04 19:32 34.74059 137.56396 36276 ft 378 kts 261°
2026-05-04 19:32 34.73903 137.53204 36032 ft 378 kts 261°
2026-05-04 19:32 34.73737 137.50010 35804 ft 378 kts 261°
2026-05-04 19:32 34.73563 137.46830 35575 ft 376 kts 261°
2026-05-04 19:33 34.73383 137.43669 35149 ft 372 kts 261°
2026-05-04 19:33 34.73203 137.40550 34665 ft 367 kts 260°
2026-05-04 19:33 34.73024 137.37504 34145 ft 364 kts 260°
2026-05-04 19:33 34.72841 137.34445 33570 ft 361 kts 260°
2026-05-04 19:34 34.72659 137.31420 33033 ft 357 kts 260°
2026-05-04 19:34 34.72479 137.28432 32526 ft 353 kts 260°
2026-05-04 19:34 34.72300 137.25470 32014 ft 349 kts 260°
2026-05-04 19:34 34.72123 137.22539 31504 ft 345 kts 260°
2026-05-04 19:35 34.71947 137.19642 31014 ft 342 kts 259°
2026-05-04 19:35 34.71771 137.16770 30515 ft 339 kts 259°
2026-05-04 19:35 34.71596 137.13923 29996 ft 336 kts 259°
2026-05-04 19:35 34.71423 137.11103 29471 ft 332 kts 260°
2026-05-04 19:36 34.71253 137.08350 28975 ft 328 kts 260°
2026-05-04 19:36 34.71082 137.05596 28495 ft 324 kts 260°
2026-05-04 19:36 34.70913 137.02874 28017 ft 321 kts 260°
2026-05-04 19:36 34.70744 137.00178 27539 ft 318 kts 261°
2026-05-04 19:37 34.70557 136.97505 27047 ft 315 kts 259°
2026-05-04 19:37 34.70113 136.94930 26590 ft 309 kts 252°
2026-05-04 19:37 34.69489 136.92445 26142 ft 306 kts 251°
2026-05-04 19:37 34.68814 136.89998 25673 ft 304 kts 251°
2026-05-04 19:38 34.68112 136.87574 25215 ft 303 kts 250°
2026-05-04 19:38 34.67406 136.85190 24760 ft 302 kts 251°
2026-05-04 19:38 34.66693 136.82793 24268 ft 301 kts 251°
2026-05-04 19:38 34.65982 136.80394 23807 ft 301 kts 251°
2026-05-04 19:39 34.65276 136.78001 23267 ft 301 kts 251°
2026-05-04 19:39 34.64583 136.75643 22778 ft 300 kts 252°
2026-05-04 19:39 34.63881 136.73248 22304 ft 301 kts 252°
2026-05-04 19:39 34.63179 136.70851 21826 ft 301 kts 252°
2026-05-04 19:40 34.62477 136.68456 21364 ft 301 kts 252°
2026-05-04 19:40 34.61776 136.66065 20876 ft 301 kts 252°
2026-05-04 19:40 34.61071 136.63666 20384 ft 301 kts 252°
2026-05-04 19:40 34.60367 136.61269 19915 ft 301 kts 252°
2026-05-04 19:41 34.59660 136.58869 19423 ft 302 kts 252°
2026-05-04 19:41 34.58960 136.56492 18957 ft 303 kts 252°
2026-05-04 19:41 34.58250 136.54082 18473 ft 304 kts 253°
2026-05-04 19:41 34.57535 136.51659 17944 ft 305 kts 253°
2026-05-04 19:42 34.56820 136.49236 17445 ft 305 kts 253°
2026-05-04 19:42 34.56103 136.46812 16888 ft 306 kts 253°
2026-05-04 19:42 34.55375 136.44344 16192 ft 317 kts 253°
2026-05-04 19:42 34.54623 136.41791 15502 ft 324 kts 254°
2026-05-04 19:43 34.53858 136.39203 14826 ft 328 kts 254°
2026-05-04 19:43 34.53092 136.36620 14157 ft 330 kts 254°
2026-05-04 19:43 34.52340 136.33973 13451 ft 331 kts 258°
2026-05-04 19:43 34.51997 136.31238 12742 ft 328 kts 272°
2026-05-04 19:44 34.52168 136.28486 12039 ft 327 kts 280°
2026-05-04 19:44 34.52497 136.25759 11337 ft 327 kts 282°
2026-05-04 19:44 34.52853 136.23023 10677 ft 328 kts 282°
2026-05-04 19:44 34.53210 136.20315 10192 ft 322 kts 282°
2026-05-04 19:45 34.53556 136.17682 9990 ft 308 kts 283°
2026-05-04 19:45 34.53889 136.15185 9859 ft 293 kts 283°
2026-05-04 19:45 34.54207 136.12798 9662 ft 281 kts 283°
2026-05-04 19:45 34.54509 136.10526 9438 ft 266 kts 283°
2026-05-04 19:46 34.54801 136.08337 9175 ft 257 kts 284°
2026-05-04 19:46 34.55087 136.06212 8880 ft 254 kts 284°
2026-05-04 19:46 34.55372 136.04104 8561 ft 253 kts 284°
2026-05-04 19:46 34.55653 136.01999 8259 ft 252 kts 284°
2026-05-04 19:47 34.55934 135.99896 7949 ft 252 kts 284°
2026-05-04 19:47 34.56214 135.97800 7563 ft 252 kts 283°
2026-05-04 19:47 34.56492 135.95708 7009 ft 249 kts 283°
2026-05-04 19:47 34.56756 135.93682 6496 ft 243 kts 283°
2026-05-04 19:48 34.57021 135.91669 5965 ft 240 kts 283°
2026-05-04 19:48 34.57285 135.89670 5433 ft 239 kts 283°
2026-05-04 19:48 34.57459 135.88355 5155 ft 238 kts 283°
2026-05-04 19:48 34.57721 135.86376 4790 ft 236 kts 283°
2026-05-04 19:49 34.57981 135.84413 4434 ft 235 kts 283°
2026-05-04 19:49 34.58239 135.82453 4108 ft 236 kts 282°
2026-05-04 19:49 34.58498 135.80484 3808 ft 235 kts 282°
2026-05-04 19:49 34.58834 135.77911 3498 ft 229 kts 282°
2026-05-04 19:50 34.58999 135.76640 3473 ft 224 kts 282°
2026-05-04 19:50 34.59241 135.74792 3477 ft 225 kts 282°
2026-05-04 19:50 34.59488 135.72909 3475 ft 225 kts 282°
2026-05-04 19:50 34.59733 135.71031 3476 ft 226 kts 282°
2026-05-04 19:51 34.59977 135.69159 3473 ft 221 kts 282°
2026-05-04 19:51 34.60212 135.67345 3477 ft 216 kts 282°
2026-05-04 19:51 34.60635 135.65620 3475 ft 212 kts 301°
2026-05-04 19:51 34.61475 135.64226 3463 ft 196 kts 316°
2026-05-04 19:52 34.62407 135.63118 3476 ft 178 kts 319°
2026-05-04 19:52 34.63259 135.62116 3457 ft 165 kts 318°
2026-05-04 19:52 34.64089 135.61108 3474 ft 173 kts 317°
2026-05-04 19:52 34.64943 135.60068 3489 ft 175 kts 317°
2026-05-04 19:53 34.65793 135.59039 3293 ft 170 kts 318°
2026-05-04 19:53 34.66597 135.58065 3050 ft 157 kts 318°
2026-05-04 19:53 34.67345 135.57160 2812 ft 148 kts 318°
2026-05-04 19:53 34.68057 135.56298 2612 ft 140 kts 318°
2026-05-04 19:54 34.68724 135.55490 2414 ft 130 kts 318°
2026-05-04 19:54 34.69360 135.54723 2207 ft 129 kts 318°
2026-05-04 19:54 34.69993 135.53947 1990 ft 129 kts 316°
2026-05-04 19:54 34.70621 135.53157 1825 ft 130 kts 316°
2026-05-04 19:55 34.71252 135.52359 1676 ft 131 kts 316°
2026-05-04 19:55 34.71899 135.51575 1552 ft 131 kts 317°
2026-05-04 19:55 34.72555 135.50799 1454 ft 132 kts 318°
2026-05-04 19:55 34.73195 135.50012 1243 ft 132 kts 316°
2026-05-04 19:56 34.73845 135.49226 1060 ft 132 kts 317°
2026-05-04 19:56 34.74510 135.48452 832 ft 131 kts 317°
2026-05-04 19:56 34.75152 135.47670 676 ft 131 kts 315°
2026-05-04 19:56 34.75786 135.46875 496 ft 130 kts 315°
2026-05-04 19:57 34.76434 135.46112 335 ft 129 kts 315°
2026-05-04 19:57 34.77072 135.45353 153 ft 127 kts 315°
2026-05-04 19:57 34.77702 135.44600 48 ft 118 kts 315°
2026-05-04 19:57 34.78203 135.43991 48 ft 88 kts 315°
2026-05-04 19:58 34.78505 135.43631 45 ft 44 kts 321°
2026-05-04 19:58 34.78671 135.43518 48 ft 11 kts 335°
2026-05-04 19:58 34.78745 135.43478 50 ft 12 kts 336°
2026-05-04 19:58 34.78828 135.43434 52 ft 14 kts 337°
2026-05-04 19:59 34.78926 135.43422 49 ft 15 kts
2026-05-04 19:59 34.79030 135.43474 48 ft 18 kts 40°
2026-05-04 19:59 34.79063 135.43610 51 ft 18 kts 91°
2026-05-04 19:59 34.79052 135.43737 53 ft 14 kts 116°
2026-05-04 20:00 34.78983 135.43835 49 ft 12 kts 134°
2026-05-04 20:00 34.78973 135.43916 50 ft 10 kts 77°
2026-05-04 20:00 34.78985 135.43985 50 ft 4 kts 75°
2026-05-04 20:00 34.79014 135.44019 49 ft 5 kts 25°
2026-05-04 20:01 34.79018 135.44021 50 ft 0 kts 24°